Regional Weather Roundup
Issued by NWS Charleston, WV

Home | Current Version | Previous Version | Text Only | Print | Product List | Glossary Off
Versions: 1 2 3 4 5 6 7 8 9 10 11 12 13 14 15 16 17 18 19 20 21 22 23 24 25 26 27 28 29 30 31 32 33 34 35 36 37 38 39 40 41 42 43 44 45 46 47 48 49 50

000
ASUS41 KRLX 282110
RWRRLX
West Virginia Regional Weather Roundup
National Weather Service Charleston WV
400 PM EST WED JAN 28 2015

Note: "fair" indicates few or no clouds below 12,000 feet with no
significant weather and/or obstructions to visibility.

WVZ003-282200-
Northern Panhandle of West Virginia

CITY           SKY/WX    TMP DP  RH WIND       PRES   REMARKS
WHEELING       SUNNY     25  10  53 CALM      30.30S
$$

WVZ009-282200-
Northwest West Virginia

CITY           SKY/WX    TMP DP  RH WIND       PRES   REMARKS
PARKERSBURG    SUNNY     29  13  51 SW6       30.36S
$$

WVZ006-282200-
Western West Virginia

CITY           SKY/WX    TMP DP  RH WIND       PRES   REMARKS
HUNTINGTON     SUNNY     32  17  54 E5        30.31F
$$

WVZ015-282200-
West Central West Virginia

CITY           SKY/WX    TMP DP  RH WIND       PRES   REMARKS
CHARLESTON     MOSUNNY   31  12  45 CALM      30.32S
$$

WVZ022-031-282200-
North Central West Virginia

CITY           SKY/WX    TMP DP  RH WIND       PRES   REMARKS
CLARKSBURG     SUNNY     25  12  58 CALM      30.31S
MORGANTOWN     SUNNY     26   7  44 W5        30.31S
$$

WVZ025-035-042-045-282200-
Southern West Virginia

CITY           SKY/WX    TMP DP  RH WIND       PRES   REMARKS
BECKLEY        SUNNY     29  14  53 NW7       30.21R
LOGAN            N/A     32  19  59 CALM      30.27S
BLUEFIELD      SUNNY     35  16  45 VRB5      30.19R
LEWISBURG      SUNNY     35   9  33 CALM      30.19S
$$

WVZ047-282200-
Northern Mountains of West Virginia

CITY           SKY/WX    TMP DP  RH WIND       PRES   REMARKS
ELKINS         SUNNY     27  12  53 NW5       30.25S
$$

WVZ052-282200-
Eastern Panhandle of West Virginia

CITY           SKY/WX    TMP DP  RH WIND       PRES   REMARKS
MARTINSBURG    SUNNY     35   5  28 NW10      30.25R
PETERSBURG     SUNNY     34   1  24 N5        30.27R
$$



USA.gov is the U.S. government's official web portal to all federal, state and local government web resources and services.